W5TTY Weather Reports


Display with metric or nautical units.
time (UTC)temp
F
wind
direction
speed
MPH
gust
MPH
rain 1hr
in
rain 24hr
in
rain mn
in
humidity
%
barometer
mb
20260507163838 61 57 5.0 9.0 0.00 0.00 0.00 87 1017.8
20260507163344 61 350 3.0 8.0 0.00 0.00 0.00 87 1017.9
20260507162829 61 316 4.0 10.0 0.00 0.00 0.00 87 1018.3
20260507162333 61 348 4.0 10.0 0.00 0.00 0.00 87 1018.1
20260507161837 61 5 3.0 10.0 0.00 0.00 0.00 87 1017.9
20260507161351 60 18 6.0 11.0 0.00 0.00 0.00 87 1018.1
20260507160834 60 39 7.0 12.0 0.00 0.00 0.00 87 1017.7
20260507160344 60 348 9.0 13.0 0.00 0.00 0.00 87 1017.5
20260507155828 61 347 8.0 15.0 0.00 0.00 0.00 87 1017.6
20260507155336 60 11 8.0 15.0 0.00 0.00 0.00 88 1017.5
20260507154845 60 39 10.0 14.0 0.00 0.00 0.00 88 1017.3
20260507154330 60 312 8.0 14.0 0.00 0.00 0.00 88 1017.4
20260507153819 60 32 10.0 14.0 0.00 0.00 0.00 88 1017.2
20260507153327 60 355 8.0 15.0 0.00 0.00 0.00 88 1017.2
20260507152831 60 355 9.0 15.0 0.00 0.00 0.00 88 1017.2
20260507152337 60 355 10.0 18.0 0.00 0.00 0.00 88 1016.8
20260507151844 60 28 10.0 18.0 0.00 0.00 0.00 88 1016.9
20260507151327 60 34 10.0 14.0 0.00 0.00 0.00 88 1017.2
20260507150833 60 24 11.0 14.0 0.00 0.00 0.00 88 1017.4
20260507150323 59 335 7.0 14.0 0.00 0.00 0.00 88 1017.5
20260507145829 59 31 7.0 14.0 0.00 0.00 0.00 88 1017.4
20260507145339 59 32 8.0 14.0 0.00 0.00 0.00 88 1017.5
20260507144845 59 41 7.0 15.0 0.00 0.00 0.00 88 1018.0
20260507144327 59 351 8.0 14.0 0.00 0.00 0.00 88 1017.8
20260507143832 58 40 6.0 15.0 0.00 0.00 0.00 88 1017.8
20260507143319 58 19 6.0 17.0 0.00 0.00 0.00 88 1017.7
20260507142852 58 348 11.0 17.0 0.00 0.00 0.00 88 1017.6
20260507142331 58 344 10.0 15.0 0.00 0.00 0.00 88 1017.5
20260507141836 58 32 8.0 15.0 0.00 0.00 0.00 88 1017.4
20260507141323 58 360 8.0 14.0 0.00 0.00 0.00 88 1017.6
20260507140847 58 13 9.0 17.0 0.00 0.00 0.00 88 1017.4
20260507140334 58 29 8.0 17.0 0.00 0.00 0.00 88 1017.8
20260507135847 58 328 8.0 21.0 0.00 0.00 0.00 88 1018.1
20260507135329 58 5 10.0 21.0 0.00 0.00 0.00 88 1018.3
20260507134832 58 5 9.0 18.0 0.00 0.00 0.00 88 1018.3
20260507134338 58 329 9.0 18.0 0.00 0.00 0.00 88 1018.4
20260507133821 58 10 6.0 14.0 0.00 0.00 0.00 88 1018.2
20260507133333 58 349 7.0 14.0 0.00 0.00 0.00 88 1017.9
20260507132324 58 12 10.0 18.0 0.00 0.00 0.00 88 1017.5
20260507131338 57 33 10.0 19.0 0.00 0.00 0.00 87 1017.6
20260507130823 58 35 11.0 18.0 0.00 0.00 0.00 87 1017.6
20260507130327 58 340 10.0 18.0 0.00 0.00 0.00 87 1017.9
20260507125834 58 346 8.0 14.0 0.00 0.00 0.00 87 1017.8
20260507125318 58 33 7.0 18.0 0.00 0.00 0.00 87 1017.6
20260507124820 58 360 10.0 18.0 0.00 0.00 0.00 87 1017.5
20260507124322 58 5 8.0 14.0 0.00 0.00 0.00 87 1017.5
20260507123854 58 360 7.0 15.0 0.00 0.00 0.00 87 1017.6
20260507123321 58 333 6.0 15.0 0.00 0.00 0.00 87 1017.3
20260507122830 58 355 5.0 10.0 0.00 0.00 0.00 87 1017.1
20260507122336 58 37 4.0 9.0 0.00 0.00 0.00 87 1017.2
20260507121823 58 21 5.0 13.0 0.00 0.00 0.00 87 1017.3
20260507121328 58 45 7.0 13.0 0.00 0.00 0.00 87 1017.3
20260507120833 58 17 6.0 14.0 0.00 0.00 0.00 87 1017.4
20260507120335 58 344 5.0 16.0 0.00 0.00 0.00 87 1017.3
20260507115821 58 9 4.0 16.0 0.00 0.00 0.00 87 1017.0
20260507115321 58 11 8.0 16.0 0.00 0.00 0.00 87 1016.7
20260507114824 58 24 10.0 17.0 0.00 0.00 0.00 87 1016.4
20260507114356 59 41 10.0 17.0 0.00 0.00 0.00 87 1016.0
20260507113823 59 349 8.0 17.0 0.00 0.00 0.00 87 1016.0
20260507113328 59 5 5.0 15.0 0.00 0.00 0.00 87 1016.1
20260507112834 59 339 7.0 15.0 0.00 0.00 0.00 87 1016.0
20260507025326 62 5 7.0 13.0 0.00 0.00 0.00 85 1014.0
20260507024834 62 360 5.0 11.0 0.00 0.00 0.00 85 1013.9
20260507024335 62 346 6.0 12.0 0.00 0.00 0.00 85 1013.8
20260507023820 62 5 6.0 12.0 0.00 0.00 0.00 85 1013.6
20260507023322 62 355 5.0 14.0 0.00 0.00 0.00 85 1013.8
20260507022828 62 348 5.0 14.0 0.00 0.00 0.00 85 1013.5
20260507022328 62 349 6.0 13.0 0.00 0.00 0.00 85 1013.3
20260507021840 62 335 6.0 13.0 0.00 0.00 0.00 85 1013.3
20260507021346 62 346 5.0 10.0 0.00 0.00 0.00 85 1013.1
20260507020850 62 10 6.0 13.0 0.00 0.00 0.00 85 1013.2
20260507020335 62 355 6.0 13.0 0.00 0.00 0.00 85 1013.0
20260507015822 62 5 8.0 13.0 0.00 0.00 0.00 85 1013.0
20260507015324 62 355 7.0 13.0 0.00 0.00 0.00 85 1012.7
20260507014823 62 23 7.0 15.0 0.00 0.00 0.00 85 1012.9
20260507014329 62 355 6.0 15.0 0.00 0.00 0.00 85 1012.9
20260507013843 63 34 7.0 13.0 0.00 0.00 0.00 85 1012.7
20260507013318 63 25 7.0 14.0 0.00 0.00 0.00 85 1012.7
20260507012828 63 327 5.0 14.0 0.00 0.00 0.00 85 1012.5
20260507012333 63 13 6.0 10.0 0.00 0.00 0.00 85 1012.4
20260507011818 63 344 5.0 17.0 0.00 0.00 0.00 85 1012.2
20260507011327 63 360 6.0 17.0 0.00 0.00 0.00 85 1012.1
20260507010831 63 346 8.0 15.0 0.00 0.00 0.00 85 1012.1
20260507010318 63 314 10.0 15.0 0.00 0.00 0.00 85 1012.0
20260507005826 63 344 8.0 12.0 0.00 0.00 0.00 85 1012.0
20260507005327 63 349 8.0 12.0 0.00 0.00 0.00 85 1011.7
20260507004829 63 312 5.0 11.0 0.00 0.00 0.00 85 1011.8
20260507004345 64 19 4.0 11.0 0.00 0.00 0.00 85 1011.7
20260507003829 64 323 5.0 15.0 0.00 0.00 0.00 85 1011.6
20260507003331 64 21 9.0 15.0 0.00 0.00 0.00 85 1011.5
20260507002834 64 344 8.0 14.0 0.00 0.00 0.00 85 1011.6
20260507002318 64 327 8.0 17.0 0.00 0.00 0.00 85 1011.6
20260507001824 64 318 10.0 17.0 0.00 0.00 0.00 85 1011.6
20260507001326 64 360 9.0 15.0 0.00 0.00 0.00 85 1011.6
20260507000834 64 341 10.0 15.0 0.00 0.00 0.00 85 1011.6
20260507000321 64 305 7.0 15.0 0.00 0.00 0.00 85 1011.4
20260506235825 64 331 8.0 12.0 0.00 0.00 0.00 85 1011.3
20260506235328 65 329 7.0 15.0 0.00 0.00 0.00 85 1011.3
20260506234841 65 348 10.0 15.0 0.00 0.00 0.00 85 1011.2
20260506234326 65 298 8.0 14.0 0.00 0.00 0.00 85 1011.1
20260506233831 65 28 7.0 16.0 0.00 0.00 0.00 85 1011.2
20260506233319 66 333 10.0 16.0 0.00 0.00 0.00 85 1011.2
20260506232828 66 355 11.0 16.0 0.00 0.00 0.00 85 1011.0
20260506232332 66 263 11.0 15.0 0.00 0.00 0.00 85 1011.1
20260506231840 67 360 8.0 15.0 0.00 0.00 0.00 85 1011.1
20260506231331 67 327 10.0 15.0 0.00 0.00 0.00 85 1011.0
20260506230835 67 355 10.0 15.0 0.00 0.00 0.00 85 1011.1
20260506230343 67 17 6.0 13.0 0.00 0.00 0.00 86 1011.1
20260506225829 67 355 8.0 13.0 0.00 0.00 0.00 86 1011.0
20260506225333 68 325 8.0 13.0 0.00 0.00 0.00 86 1011.0
20260506224822 68 317 6.0 18.0 0.00 0.00 0.00 86 1010.9
20260506224328 68 336 8.0 17.0 0.00 0.00 0.00 86 1010.9
20260506223829 68 338 5.0 18.0 0.00 0.00 0.00 86 1010.9
20260506223336 68 355 7.0 18.0 0.00 0.00 0.00 86 1010.9
20260506222824 68 355 9.0 16.0 0.00 0.00 0.00 86 1010.8
20260506222326 69 340 9.0 16.0 0.00 0.00 0.00 86 1010.8
20260506221839 69 323 9.0 16.0 0.00 0.00 0.00 86 1010.8
20260506221318 70 317 8.0 15.0 0.00 0.00 0.00 86 1010.7
20260506220850 70 292 5.0 13.0 0.00 0.00 0.00 87 1010.6
20260506220336 70 279 6.0 15.0 0.00 0.00 0.00 87 1010.7
20260506215846 70 294 8.0 16.0 0.00 0.00 0.00 87 1010.7
20260506215329 70 321 9.0 16.0 0.00 0.00 0.00 86 1010.5
20260506214818 70 277 8.0 17.0 0.00 0.00 0.00 87 1010.5
20260506214346 70 330 8.0 17.0 0.00 0.00 0.00 87 1010.4
20260506213851 71 11 9.0 19.0 0.00 0.00 0.00 87 1010.5
20260506213337 71 309 9.0 19.0 0.00 0.00 0.00 87 1010.5
20260506212825 71 307 9.0 16.0 0.00 0.00 0.00 87 1010.4
20260506212327 71 347 8.0 16.0 0.00 0.00 0.00 87 1010.6
20260506211833 70 304 7.0 17.0 0.00 0.00 0.00 87 1010.7
20260506211346 70 328 10.0 17.0 0.00 0.00 0.00 87 1010.6
20260506210831 71 14 10.0 15.0 0.00 0.00 0.00 87 1010.6
20260506210339 71 317 8.0 16.0 0.00 0.00 0.00 87 1010.5
20260506205828 71 348 9.0 16.0 0.00 0.00 0.00 87 1010.6
20260506205350 72 294 7.0 17.0 0.00 0.00 0.00 87 1010.5
20260506204817 72 346 10.0 17.0 0.00 0.00 0.00 87 1010.4
20260506204347 72 317 7.0 16.0 0.00 0.00 0.00 87 1010.4
20260506203839 73 321 9.0 14.0 0.00 0.00 0.00 87 1010.5
20260506203322 73 360 10.0 13.0 0.00 0.00 0.00 87 1010.4
20260506202826 73 323 8.0 14.0 0.00 0.00 0.00 88 1010.3
20260506202329 74 300 7.0 14.0 0.00 0.00 0.00 87 1010.2
20260506201837 74 322 6.0 14.0 0.00 0.00 0.00 88 1010.2
20260506201321 74 327 6.0 12.0 0.00 0.00 0.00 88 1010.3
20260506200835 74 315 3.0 11.0 0.00 0.00 0.00 88 1010.3
20260506200343 75 336 5.0 14.0 0.00 0.00 0.00 88 1010.2
20260506195829 75 329 6.0 14.0 0.00 0.00 0.00 88 1010.3
20260506195336 75 317 4.0 12.0 0.00 0.00 0.00 88 1010.2
20260506194843 75 305 5.0 12.0 0.00 0.00 0.00 88 1010.2
20260506194327 76 298 7.0 12.0 0.00 0.00 0.00 88 1010.3
20260506193836 76 344 5.0 12.0 0.00 0.00 0.00 89 1010.3
20260506193326 75 325 3.0 9.0 0.00 0.00 0.00 89 1010.3
20260506192900 75 348 3.0 8.0 0.00 0.00 0.00 89 1010.3
20260506192346 75 350 3.0 8.0 0.00 0.00 0.00 88 1010.2
20260506191829 74 59 1.0 4.0 0.00 0.00 0.00 89 1010.1
20260506191332 73 59 1.0 7.0 0.00 0.00 0.00 89 1010.1
20260506190822 73 29 4.0 7.0 0.00 0.00 0.00 89 1010.1
20260506190325 72 71 4.0 8.0 0.00 0.00 0.00 89 1010.1
20260506185828 72 76 3.0 7.0 0.00 0.00 0.00 89 1010.0
20260506185403 71 98 3.0 11.0 0.00 0.00 0.00 89 1010.0
20260506184828 71 69 5.0 11.0 0.00 0.00 0.00 89 1010.0
20260506184332 71 84 6.0 10.0 0.00 0.00 0.00 89 1010.0
20260506183819 70 125 4.0 10.0 0.00 0.00 0.00 89 1010.1
20260506183326 70 115 2.0 10.0 0.00 0.00 0.00 89 1010.1
20260506182830 69 84 4.0 11.0 0.00 0.00 0.00 89 1010.1
20260506182335 68 73 7.0 11.0 0.00 0.00 0.00 89 1010.1
20260506181821 68 50 4.0 11.0 0.00 0.00 0.00 89 1010.4
20260506181326 67 84 7.0 11.0 0.00 0.00 0.00 89 1010.7
20260506180836 67 77 4.0 10.0 0.00 0.00 0.00 89 1010.7
20260506180343 66 112 4.0 13.0 0.00 0.00 0.00 89 1010.8
20260506175836 66 57 6.0 13.0 0.00 0.00 0.00 89 1010.8
20260506175339 65 42 6.0 14.0 0.00 0.00 0.00 89 1010.9
20260506174844 65 61 8.0 15.0 0.00 0.00 0.00 89 1011.0
20260506174327 64 67 10.0 17.0 0.00 0.00 0.00 89 1011.0
20260506173834 64 51 7.0 15.0 0.00 0.00 0.00 89 1011.1
20260506173321 64 26 8.0 18.0 0.00 0.00 0.00 88 1011.2
20260506172846 63 349 11.0 19.0 0.00 0.00 0.00 88 1011.2
20260506172337 63 30 12.0 20.0 0.00 0.00 0.00 88 1011.3
20260506171842 63 355 11.0 20.0 0.00 0.00 0.00 88 1011.5
20260506171318 63 9 11.0 16.0 0.00 0.00 0.00 88 1011.9
20260506170830 62 323 8.0 19.0 0.00 0.00 0.00 88 1012.2
20260506170337 62 340 9.0 19.0 0.00 0.00 0.00 88 1012.5
20260506165824 63 342 10.0 18.0 0.00 0.00 0.00 88 1012.6
20260506165348 63 313 9.0 19.0 0.00 0.00 0.00 88 1012.9
20260506164828 63 360 13.0 23.0 0.00 0.00 0.00 87 1013.0
20260506164333 64 337 14.0 23.0 0.00 0.00 0.00 87 1013.0